This is the latest recevied weather packets stored in our database for station/object HB9SZU-7. If no packets are shown the sender has not sent any weather packets the latest 10 day(s).
| Time | Temp. | Humidity | Pressure | Rain* | Wind** | Luminosity | Snow |
|---|---|---|---|---|---|---|---|
| 1777924429 | 14.44° C | 54% | 936.6 hPa | - | - | - | - |
| 1777923469 | 14.44° C | 54% | 936.5 hPa | - | - | - | - |
| 1777922510 | 14.44° C | 54% | 936.3 hPa | - | - | - | - |
| 1777919629 | 15° C | 54% | 936.2 hPa | - | - | - | - |
| 1777918669 | 15° C | 52% | 936.1 hPa | - | - | - | - |
| 1777917709 | 15.56° C | 53% | 936.1 hPa | - | - | - | - |
| 1777915789 | 15.56° C | 51% | 936.1 hPa | - | - | - | - |
| 1777913870 | 16.11° C | 50% | 936.2 hPa | - | - | - | - |
| 1777909070 | 16.67° C | 49% | 936.4 hPa | - | - | - | - |
| 1777908110 | 17.22° C | 50% | 936.5 hPa | - | - | - | - |
| 1777905230 | 16.67° C | 50% | 936.8 hPa | - | - | - | - |
| 1777904269 | 17.22° C | 50% | 937 hPa | - | - | - | - |
| 1777903310 | 17.22° C | 51% | 937.1 hPa | - | - | - | - |
| 1777900430 | 17.22° C | 50% | 937.4 hPa | - | - | - | - |
| 1777899470 | 17.22° C | 50% | 937.5 hPa | - | - | - | - |
| 1777897550 | 16.67° C | 50% | 937.6 hPa | - | - | - | - |
| 1777896590 | 17.22° C | 48% | 937.5 hPa | - | - | - | - |
| 1777895629 | 17.22° C | 48% | 937.4 hPa | - | - | - | - |
| 1777894670 | 17.22° C | 47% | 937.6 hPa | - | - | - | - |
| 1777893710 | 17.78° C | 49% | 937.7 hPa | - | - | - | - |
| 1777892750 | 17.78° C | 48% | 937.7 hPa | - | - | - | - |
| 1777891790 | 17.78° C | 48% | 938 hPa | - | - | - | - |
| 1777890830 | 17.78° C | 48% | 938 hPa | - | - | - | - |
| 1777889869 | 17.22° C | 48% | 938 hPa | - | - | - | - |
| 1777888910 | 16.11° C | 50% | 938.1 hPa | - | - | - | - |
* Rain since midnight (hover to see other rain measurements)
** Current wind speed in m/s (hover to see current wind gust speed)